{"data":{"norad_id":52455,"intl_designator":"2022-049E","name":"STARLINK-3890","alt_names":[],"object_type":"PAYLOAD","status":"ACTIVE","operator":null,"country":"US","launch_date":"2022-05-06","launch_site_code":"AFETR","launch_vehicle":null,"mission":null,"orbit_class":"UNKNOWN","rcs_meters":null,"size_class":null,"mass_kg":null,"dimensions":null,"purposes":["comms"],"wikipedia_slug":null,"has_3d_model":false,"image_url":null,"decayed_at":null,"tle_current":{"epoch":"2026-05-25T03:25:45.836832Z","epoch_age_seconds":52980,"freshness":"FRESH","line1":"1 52455U 22049E   26145.14289163 -.00000487  00000+0 -12492-4 0  9992","line2":"2 52455  53.2153  85.9092 0001521  87.6248 272.4919 15.08840554223651","mean_motion":15.08840554,"eccentricity":0.0001521,"inclination_deg":53.2153,"raan_deg":85.9092,"arg_perigee_deg":87.6248,"mean_anomaly_deg":272.4919,"bstar":-1.2492e-5,"rev_number":22365,"period_min":95.437519636021,"perigee_km":538.68948625865,"apogee_km":540.79390495786,"semimajor_km":6917.8786956083,"source":"CELESTRAK","updated_at":"2026-05-25T13:38:17.124756Z"}}}